Tucson, AZ

12:05 PM MST on January 22, 2017 (GMT -0700)
Tucson International

Weather History for KTUS - October, 2013

Change the Weather History Date:

Sunday, October 6, 2013

  Actual Average Record
Temperature  
Mean Temperature 70 °F 75 °F  
Max Temperature 90 °F 88 °F 101 °F (1987)
Min Temperature 50 °F 61 °F 39 °F (1908)
Degree Days  
Heating Degree Days 0 0  
Month to date heating degree days 0 0  
Since 1 July heating degree days 0 0  
Cooling Degree Days 5 10  
Month to date cooling degree days 57 65  
Year to date cooling degree days 3478 2972  
Growing Degree Days 20 (Base 50)    
Moisture  
Dew Point 14 °F    
Average Humidity 14    
Maximum Humidity 22    
Minimum Humidity 5    
Precipitation  
Precipitation 0.00 in 0.04 in 1.47 in (1977)
Month to date precipitation 0.00 0.21  
Year to date precipitation 5.48 9.41  
Snow  
Snow 0.00 in - - ()
Month to date snowfall 0.0  
Snow Depth 0.00 in    
Sea Level Pressure  
Sea Level Pressure 30.00 in    
Wind  
Wind Speed 8 mph (ESE)    
Max Wind Speed 24 mph    
Max Gust Speed 29 mph    
Visibility 10 miles    
Events      
T = Trace of Precipitation, MM = Missing Value Source: NWS Daily Summary

Daily Weather History Graph

Daily Weather History Graph

Search for Another Location

Airport or City:

Trip Planner

Search our weather history database for the weather conditions in past years. The results will help you decide how hot, cold, wet, or windy it might be!

Date:

Astronomy

Oct. 06, 2013 Rise Set
Actual Time 6:21 AM MST 6:01 PM MST
Civil Twilight 5:56 AM MST 6:26 PM MST
Nautical Twilight 5:28 AM MST 6:54 PM MST
Astronomical Twilight 5:00 AM MST 7:22 PM MST
Moon 8:01 AM MST (10/6) 7:12 PM MST (10/6)
Length of Visible Light 12h 29m
Length of Day
11h 40m
Waxing Crescent, 4% of the Moon is Illuminated
Oct 6
Waxing Crescent
Oct 11
First Quarter
Oct 18
Full
Oct 26
Last Quarter
Nov 3
New

Hourly Weather History & Observations

Time (MST) Temp. Dew Point Humidity Pressure Visibility Wind Dir Wind Speed Gust Speed Precip Events Conditions
12:53 AM 57.9 °F 10.0 °F 15% 30.05 in 10.0 mi ESE 4.6 mph - N/A   Clear
1:53 AM 57.0 °F 10.9 °F 16% 30.05 in 10.0 mi SE 4.6 mph - N/A   Clear
2:53 AM 53.1 °F 10.9 °F 19% 30.04 in 10.0 mi South 3.5 mph - N/A   Clear
3:53 AM 54.0 °F 12.0 °F 19% 30.03 in 10.0 mi South 4.6 mph - N/A   Clear
4:53 AM 50.0 °F 14.0 °F 24% 30.06 in 10.0 mi Calm Calm - N/A   Clear
5:53 AM 55.0 °F 12.9 °F 19% 30.05 in 10.0 mi SE 5.8 mph - N/A   Clear
6:53 AM 53.1 °F 14.0 °F 21% 30.06 in 10.0 mi South 6.9 mph - N/A   Clear
7:53 AM 68.0 °F 17.1 °F 14% 30.06 in 10.0 mi ESE 8.1 mph - N/A   Clear
8:53 AM 73.9 °F 17.1 °F 12% 30.07 in 10.0 mi SE 11.5 mph - N/A   Clear
9:53 AM 79.0 °F 17.1 °F 10% 30.06 in 10.0 mi East 10.4 mph 18.4 mph N/A   Clear
10:53 AM 82.0 °F 16.0 °F 8% 30.04 in 10.0 mi ESE 20.7 mph 26.5 mph N/A   Clear
11:53 AM 86.0 °F 15.1 °F 7% 30.02 in 10.0 mi East 11.5 mph 20.7 mph N/A   Clear
12:53 PM 87.1 °F 10.9 °F 6% 29.99 in 10.0 mi ESE 15.0 mph 20.7 mph N/A   Clear
1:53 PM 87.1 °F 12.9 °F 6% 29.97 in 10.0 mi Variable 6.9 mph 16.1 mph N/A   Clear
2:53 PM 89.1 °F 10.9 °F 5% 29.96 in 10.0 mi East 9.2 mph - N/A   Clear
3:53 PM 89.1 °F 12.0 °F 6% 29.94 in 10.0 mi Variable 3.5 mph - N/A   Clear
4:53 PM 88.0 °F 14.0 °F 6% 29.94 in 10.0 mi Variable 3.5 mph - N/A   Clear
5:53 PM 86.0 °F 12.9 °F 7% 29.94 in 10.0 mi NE 10.4 mph - N/A   Clear
6:53 PM 82.0 °F 15.1 °F 8% 29.95 in 10.0 mi ENE 8.1 mph - N/A   Clear
7:53 PM 80.1 °F 17.1 °F 9% 29.94 in 10.0 mi ENE 8.1 mph - N/A   Clear
8:53 PM 75.9 °F 17.1 °F 11% 29.95 in 10.0 mi East 5.8 mph - N/A   Clear
9:53 PM 73.0 °F 18.0 °F 12% 29.96 in 10.0 mi ESE 6.9 mph - N/A   Clear
10:53 PM 73.0 °F 17.1 °F 12% 29.95 in 10.0 mi ESE 10.4 mph - N/A   Clear
11:53 PM 71.1 °F 18.0 °F 13% 29.94 in 10.0 mi ESE 10.4 mph - N/A   Clear